[[{"header":{"parameterUnit":"m.s-1","parameterCategory":1,"la1":30.2991,"la2":30.254,"lo1":-89.0895,"lo2":-89.0444,"dy":0.0017,"dx":0.0017,"nx":28,"ny":28,"refTime":"2025-11-06T03:00:00:Z","depth":0,"parameterNumber":2,"parameterNumberName":"U-component_of_WINDS"},"data":[0,0,0,0,0,0,0,0,0,0,0,0,0,0,0,0,0,0,0,0,0,0,0,0,0,0,0,0,0,0,0,0,0,0,0,0,0,0,0,0,0,0,0,0,0,0,0,0,0,0,0,0,0,0,0,0,0,0,-0.4539,-0.4539,0,-0.4555,-0.4556,-0.4556,-0.4504,-0.4503,-0.4501,-0.45,-0.4518,-0.452,-0.4522,0,0,0,0,0,0,0,0,0,0,0,0,0,-0.4463,-0.4465,-0.4539,-0.4539,-0.4539,-0.4555,-0.4556,-0.4556,-0.4504,-0.4503,-0.4501,-0.4499,-0.4517,-0.452,-0.4522,0,0,0,0,0,0,0,0,0,0,0,0,0,-0.449,-0.4465,-0.4539,-0.4515,-0.4514,-0.4555,-0.4556,-0.4556,-0.4505,-0.4503,-0.45,-0.4498,-0.4517,-0.4519,-0.4522,-0.4588,0,0,-0.4531,-0.4533,0,0,0,0,0,0,0,0,-0.4488,-0.4493,-0.4519,-0.4517,-0.4515,-0.4525,-0.4536,-0.4567,-0.4505,-0.4508,-0.45,-0.4497,-0.4522,-0.4525,-0.4533,-0.4589,-0.4589,-0.4531,-0.4533,-0.4535,-0.4535,0,0,0,0,0,0,0,-0.4486,-0.4492,-0.4545,-0.4519,-0.4517,-0.4504,-0.4506,-0.4541,-0.4528,-0.4508,-0.4504,-0.4507,-0.4521,-0.453,-0.4533,-0.459,-0.4531,-0.4534,-0.4536,-0.4537,-0.47,-0.4703,0,0,0,0,0,0,-0.4488,-0.449,-0.4545,-0.4546,-0.4496,-0.4508,-0.4509,-0.4524,-0.4528,-0.4526,-0.4509,-0.4504,-0.4526,-0.453,-0.4534,-0.4612,-0.4535,-0.4537,-0.4539,-0.4698,-0.4701,-0.4704,0,0,0,0,0,0,-0.4486,-0.4493,-0.4544,-0.4517,-0.4523,-0.4512,-0.4529,-0.4526,-0.4535,-0.4529,-0.4526,-0.4521,-0.4525,-0.4529,-0.4575,-0.4611,-0.4539,-0.4541,-0.4695,-0.4699,-0.4702,-0.4767,0,0,0,0,0,0,-0.4484,-0.4493,-0.4517,-0.4518,-0.4524,-0.4585,-0.4531,-0.4528,-0.454,-0.4535,-0.4539,-0.4538,-0.4523,-0.4571,-0.4578,-0.4614,-0.4544,-0.4691,-0.4697,-0.4701,-0.4762,-0.4773,-0.4782,0,0,0,0,0,-0.4482,-0.4535,-0.4519,-0.4526,-0.4555,-0.4587,-0.4591,-0.4573,-0.4544,-0.4569,-0.4564,-0.4537,-0.4606,-0.4576,-0.4583,-0.4621,-0.4689,-0.4695,-0.4701,-0.4757,-0.4771,-0.4782,0,0,0,0,0,0,-0.454,-0.4535,-0.4517,-0.4572,-0.458,-0.4579,-0.461,-0.4588,-0.4605,-0.4599,-0.4576,-0.4578,-0.4628,-0.4628,-0.4595,-0.4685,-0.4642,-0.465,-0.4683,-0.4696,-0.4706,-0.4706,-0.4546,0,0,0,0,0,-0.4559,-0.4585,-0.4579,-0.4629,-0.4634,-0.4621,-0.4635,-0.462,-0.4628,-0.4631,-0.463,-0.4639,-0.4663,-0.4679,-0.47,-0.4761,-0.4762,-0.4791,-0.4801,-0.4809,-0.4817,-0.485,-0.4863,-0.4723,-0.4723,-0.4723,0,0,-0.4599,-0.4599,-0.4618,-0.4641,-0.4645,-0.4674,-0.4625,-0.4657,-0.4678,-0.4636,-0.468,-0.4679,-0.4687,-0.4741,-0.4765,-0.4743,-0.4855,-0.4817,-0.4823,-0.4827,-0.4858,-0.4871,-0.4883,-0.4727,-0.4726,-0.4725,0,0,-0.4687,-0.4689,-0.4731,-0.4737,-0.4745,-0.4736,-0.4746,-0.4747,-0.4745,-0.4787,-0.4757,-0.4782,-0.4822,-0.483,-0.4839,-0.4929,-0.4906,-0.4937,-0.4991,-0.5024,-0.5035,-0.5045,-0.5079,-0.5091,-0.4944,-0.4944,-0.4944,0,-0.4736,-0.4778,-0.4756,-0.479,-0.4802,-0.4764,-0.4807,-0.4813,-0.4828,-0.4837,-0.4812,-0.4863,-0.4866,-0.4921,-0.4943,-0.4951,-0.4963,-0.4937,-0.5035,-0.5045,-0.5053,-0.5085,-0.5098,-0.4948,-0.4947,-0.4947,-0.4946,0,-0.4839,-0.4868,-0.4901,-0.4915,-0.493,-0.4968,-0.4953,-0.497,-0.4954,-0.4947,-0.4991,-0.4993,-0.5015,-0.5026,-0.5011,-0.508,-0.5066,-0.5039,-0.4996,-0.5071,-0.5101,-0.5113,-0.4953,-0.4952,-0.4951,-0.495,0,0,-0.4966,-0.4967,-0.498,-0.4986,-0.4992,-0.5014,-0.505,-0.5071,-0.5087,-0.5097,-0.5128,-0.5163,-0.5138,-0.5148,-0.5133,-0.5161,-0.5234,-0.513,-0.513,-0.5151,-0.5312,-0.5335,-0.5349,-0.5217,-0.522,-0.5221,-0.5312,0,-0.5054,-0.5117,-0.5098,-0.5161,-0.5189,-0.5153,-0.5185,-0.5192,-0.5186,-0.5209,-0.5202,-0.5228,-0.5192,-0.5198,-0.5224,-0.522,-0.5267,-0.5213,-0.5247,-0.5249,-0.5249,-0.5364,-0.5388,-0.5474,-0.5323,-0.5325,-0.5327,0,-0.5166,-0.5181,-0.5248,-0.5248,-0.5259,-0.5288,-0.5306,-0.5327,-0.5334,-0.5328,-0.5339,-0.5318,-0.5354,-0.5309,-0.536,-0.5323,-0.5336,-0.5336,-0.5339,-0.5343,-0.5294,-0.5374,-0.55,-0.5514,-0.5344,-0.5343,-0.5342,0,-0.5255,-0.5291,-0.5336,-0.5342,-0.5344,-0.5365,-0.5367,-0.5372,-0.5385,-0.54,-0.5409,-0.5427,-0.5438,-0.5454,-0.5438,-0.5407,-0.5491,-0.5445,-0.5488,-0.5489,-0.551,-0.5509,-0.5643,-0.5514,-0.5514,-0.5514,-0.5514,0,-0.5357,-0.5399,-0.5376,-0.5404,-0.545,-0.5427,-0.5474,-0.5472,-0.5476,-0.5503,-0.5472,-0.5498,-0.5475,-0.5499,-0.5486,-0.5531,-0.5535,-0.5532,-0.5529,-0.5536,-0.5537,-0.5546,-0.5541,-0.5517,-0.5517,-0.5516,-0.5515,0,-0.5465,-0.5451,-0.5498,-0.5495,-0.5495,-0.553,-0.5528,-0.5553,-0.5545,-0.558,-0.5586,-0.5574,-0.56,-0.5585,-0.5612,-0.5604,-0.5662,-0.5649,-0.566,-0.5658,-0.5703,-0.57,-0.5848,-0.5867,-0.5725,-0.5727,-0.5728,0,-0.5532,-0.5564,-0.5565,-0.5581,-0.5584,-0.561,-0.5623,-0.5602,-0.5617,-0.5627,-0.5652,-0.5675,-0.5694,-0.5738,-0.5731,-0.5752,-0.5741,-0.5791,-0.5744,-0.5751,-0.5744,-0.5743,-0.5747,-0.5802,-0.5804,-0.5805,-0.5806,0,-0.5654,-0.5645,-0.5666,-0.5684,-0.5701,-0.5715,-0.5725,-0.574,-0.5718,-0.5737,-0.5764,-0.5778,-0.5805,-0.5829,-0.5847,-0.5849,-0.5825,-0.582,-0.5832,-0.5841,-0.5847,-0.5847,-0.5689,-0.5818,-0.5817,-0.5816,-0.5815,-0.5815,-0.5745,-0.5772,-0.5777,-0.5801,-0.5807,-0.5817,-0.5842,-0.5836,-0.5858,-0.5879,-0.5864,-0.5896,-0.5901,-0.5922,-0.5927,-0.5952,-0.5932,-0.5948,-0.5953,-0.5958,-0.5965,-0.5841,-0.5955,-0.5954,-0.5954,-0.5954,-0.5953,0,-0.5867,-0.5868,-0.589,-0.5906,-0.5925,-0.5899,-0.591,-0.5928,-0.5956,-0.5963,-0.5981,-0.6012,-0.6035,-0.603,-0.6051,-0.6072,-0.6061,-0.6078,-0.6078,-0.6079,-0.5981,-0.597,-0.6087,-0.6087,-0.6087,-0.6087,-0.6087,-0.6086,-0.5933,-0.5978,-0.5969,-0.6016,-0.6017,-0.6048,-0.6056,-0.6066,-0.6072,-0.6108,-0.6127,-0.6123,-0.6125,-0.6146,-0.6166,-0.6164,-0.6174,-0.6196,-0.619,-0.6099,-0.6086,-0.6073,-0.6063,-0.6197,-0.6198,-0.6286,-0.6287,-0.6288]},{"header":{"parameterUnit":"m.s-1","parameterCategory":1,"la1":30.2991,"la2":30.254,"lo1":-89.0895,"lo2":-89.0444,"dy":0.0017,"dx":0.0017,"nx":28,"ny":28,"refTime":"2025-11-06T03:00:00:Z","depth":0,"parameterNumber":3,"parameterNumberName":"V-component_of_WINDS"},"data":[0,0,0,0,0,0,0,0,0,0,0,0,0,0,0,0,0,0,0,0,0,0,0,0,0,0,0,0,0,0,0,0,0,0,0,0,0,0,0,0,0,0,0,0,0,0,0,0,0,0,0,0,0,0,0,0,0,0,-1.6798,-1.6799,0,-1.6846,-1.6846,-1.6847,-1.6829,-1.6828,-1.6827,-1.6826,-1.6875,-1.6877,-1.6879,0,0,0,0,0,0,0,0,0,0,0,0,0,-1.6694,-1.6696,-1.6798,-1.6799,-1.68,-1.6845,-1.6846,-1.6847,-1.6829,-1.6828,-1.6826,-1.6825,-1.6874,-1.6877,-1.6879,0,0,0,0,0,0,0,0,0,0,0,0,0,-1.674,-1.6696,-1.6798,-1.6796,-1.6797,-1.6845,-1.6846,-1.6847,-1.6829,-1.6828,-1.6826,-1.6825,-1.6873,-1.6876,-1.688,-1.6933,0,0,-1.689,-1.6892,0,0,0,0,0,0,0,0,-1.6737,-1.6744,-1.6796,-1.6796,-1.6797,-1.683,-1.6827,-1.6876,-1.683,-1.6817,-1.6826,-1.6824,-1.6861,-1.6865,-1.6878,-1.6936,-1.6938,-1.6891,-1.6893,-1.6894,-1.6895,0,0,0,0,0,0,0,-1.6734,-1.6742,-1.6817,-1.6797,-1.6797,-1.6793,-1.6798,-1.6836,-1.6847,-1.6818,-1.6817,-1.6823,-1.6861,-1.6874,-1.6879,-1.6938,-1.689,-1.6894,-1.6896,-1.6897,-1.7043,-1.7045,0,0,0,0,0,0,-1.6731,-1.6739,-1.6815,-1.6818,-1.6762,-1.6796,-1.6802,-1.6821,-1.6847,-1.6849,-1.6824,-1.6822,-1.6869,-1.6875,-1.688,-1.6945,-1.6894,-1.6897,-1.6899,-1.7041,-1.7043,-1.7045,0,0,0,0,0,0,-1.6728,-1.6738,-1.6814,-1.6778,-1.6788,-1.68,-1.6821,-1.6823,-1.6836,-1.6851,-1.6853,-1.6836,-1.6868,-1.6876,-1.692,-1.6947,-1.6899,-1.6902,-1.7039,-1.7042,-1.7044,-1.7075,0,0,0,0,0,0,-1.6725,-1.6737,-1.6757,-1.6779,-1.679,-1.6853,-1.6823,-1.6825,-1.6842,-1.6839,-1.6863,-1.6865,-1.6868,-1.6915,-1.6924,-1.6951,-1.6905,-1.7037,-1.704,-1.7044,-1.7072,-1.7079,-1.7084,0,0,0,0,0,-1.6722,-1.6764,-1.6758,-1.6768,-1.6815,-1.6854,-1.686,-1.6862,-1.6844,-1.6865,-1.6875,-1.6865,-1.6942,-1.692,-1.6929,-1.6958,-1.7035,-1.7039,-1.7043,-1.7069,-1.7077,-1.7084,0,0,0,0,0,0,-1.6745,-1.6767,-1.6761,-1.6811,-1.6831,-1.6851,-1.6877,-1.6871,-1.6896,-1.6892,-1.6893,-1.6899,-1.6945,-1.6956,-1.6931,-1.7011,-1.6986,-1.6992,-1.7002,-1.701,-1.7017,-1.7013,-1.6908,0,0,0,0,0,-1.6756,-1.6786,-1.6803,-1.6846,-1.6856,-1.6865,-1.6882,-1.6882,-1.6902,-1.6911,-1.6924,-1.6944,-1.6973,-1.6992,-1.702,-1.7073,-1.7078,-1.7097,-1.7104,-1.7109,-1.7114,-1.7143,-1.7152,-1.7059,-1.7059,-1.7059,0,0,-1.678,-1.6795,-1.6814,-1.6851,-1.6867,-1.6897,-1.6872,-1.6906,-1.6929,-1.6916,-1.6959,-1.6969,-1.6992,-1.7042,-1.7064,-1.7052,-1.7141,-1.7114,-1.7118,-1.712,-1.7148,-1.7157,-1.7165,-1.7062,-1.7061,-1.7061,0,0,-1.6838,-1.6852,-1.689,-1.6906,-1.6929,-1.6934,-1.6943,-1.6965,-1.6971,-1.7014,-1.7005,-1.7032,-1.7082,-1.7099,-1.7114,-1.7179,-1.717,-1.7188,-1.722,-1.7249,-1.7256,-1.7263,-1.7286,-1.7295,-1.7193,-1.7193,-1.7193,0,-1.6864,-1.691,-1.691,-1.6945,-1.6962,-1.6951,-1.6989,-1.7004,-1.7035,-1.7047,-1.7033,-1.7096,-1.7111,-1.7164,-1.718,-1.7192,-1.7203,-1.7185,-1.7255,-1.7262,-1.7268,-1.729,-1.7299,-1.7195,-1.7195,-1.7195,-1.7194,0,-1.6941,-1.6973,-1.7,-1.7031,-1.7051,-1.7087,-1.7093,-1.7113,-1.7111,-1.7118,-1.7162,-1.7179,-1.721,-1.7223,-1.7221,-1.7276,-1.7268,-1.7255,-1.723,-1.7279,-1.73,-1.7308,-1.7198,-1.7197,-1.7197,-1.7196,0,0,-1.7015,-1.7045,-1.7055,-1.7069,-1.7094,-1.7119,-1.7155,-1.7185,-1.7202,-1.7224,-1.7254,-1.7297,-1.7285,-1.7302,-1.7302,-1.7327,-1.7377,-1.731,-1.7311,-1.7322,-1.7439,-1.7449,-1.7459,-1.7372,-1.7373,-1.7374,-1.7437,0,-1.7076,-1.7138,-1.714,-1.7197,-1.7227,-1.7217,-1.7248,-1.7267,-1.7275,-1.7301,-1.7309,-1.734,-1.7321,-1.7332,-1.7356,-1.7366,-1.7401,-1.7361,-1.74,-1.7401,-1.7395,-1.747,-1.7481,-1.754,-1.7446,-1.7447,-1.7448,0,-1.7155,-1.7179,-1.7239,-1.726,-1.7273,-1.7301,-1.7328,-1.7354,-1.7375,-1.7379,-1.7398,-1.7394,-1.7431,-1.7404,-1.7455,-1.7428,-1.7444,-1.7451,-1.7454,-1.7458,-1.7428,-1.7477,-1.7558,-1.7567,-1.7461,-1.746,-1.7459,0,-1.7204,-1.7251,-1.7294,-1.7306,-1.7331,-1.7351,-1.7362,-1.7382,-1.74,-1.7424,-1.7436,-1.7464,-1.748,-1.7502,-1.7506,-1.7486,-1.7557,-1.7531,-1.7561,-1.7561,-1.7577,-1.7576,-1.7663,-1.7587,-1.7587,-1.7586,-1.7586,0,-1.7271,-1.7309,-1.7316,-1.7342,-1.7384,-1.7385,-1.7427,-1.7436,-1.7454,-1.7482,-1.7475,-1.7501,-1.7505,-1.7532,-1.7536,-1.7577,-1.7584,-1.7589,-1.7589,-1.759,-1.7589,-1.76,-1.7597,-1.7589,-1.7588,-1.7588,-1.7587,0,-1.7333,-1.7339,-1.7385,-1.7405,-1.7411,-1.7441,-1.7458,-1.7483,-1.749,-1.7526,-1.7534,-1.7545,-1.7577,-1.7583,-1.7621,-1.7623,-1.7673,-1.7669,-1.7666,-1.7665,-1.7696,-1.7693,-1.7793,-1.7807,-1.7721,-1.7722,-1.7723,0,-1.7376,-1.7405,-1.7428,-1.7446,-1.7458,-1.7488,-1.7506,-1.7508,-1.7528,-1.7554,-1.7576,-1.7607,-1.7632,-1.7684,-1.7695,-1.7724,-1.7721,-1.7754,-1.7725,-1.7725,-1.7722,-1.7721,-1.7724,-1.776,-1.7761,-1.7762,-1.7762,0,-1.7452,-1.7453,-1.748,-1.7508,-1.753,-1.7552,-1.7573,-1.7588,-1.7593,-1.7616,-1.7648,-1.7668,-1.7706,-1.7737,-1.7766,-1.7778,-1.7771,-1.7771,-1.778,-1.7781,-1.7778,-1.778,-1.7681,-1.7769,-1.7768,-1.7768,-1.7767,-1.7767,-1.7506,-1.7531,-1.7551,-1.7581,-1.7597,-1.7616,-1.7641,-1.7651,-1.7678,-1.7709,-1.7709,-1.7745,-1.7765,-1.7803,-1.7817,-1.7845,-1.7835,-1.7847,-1.785,-1.7854,-1.7857,-1.7773,-1.785,-1.785,-1.785,-1.785,-1.785,0,-1.7581,-1.7594,-1.7621,-1.7651,-1.7674,-1.7665,-1.7688,-1.7709,-1.774,-1.776,-1.7784,-1.7822,-1.7852,-1.7866,-1.7896,-1.7916,-1.7913,-1.7923,-1.7922,-1.7925,-1.7864,-1.7854,-1.7925,-1.7925,-1.7925,-1.7925,-1.7925,-1.7925,-1.7624,-1.7666,-1.767,-1.7719,-1.7732,-1.7766,-1.778,-1.7799,-1.7814,-1.7856,-1.7881,-1.789,-1.7907,-1.7938,-1.7966,-1.7969,-1.798,-1.7992,-1.7994,-1.7937,-1.7929,-1.7922,-1.7912,-1.7994,-1.7994,-1.8052,-1.8053,-1.8053]}]]